Find Starlink 31485

NORAD ID: 59308 Int'l Des: 2024-056 Owner: SPXS Country: US Constellation: starlink operational
LEOCIRCULAR

当前视图

正在加载3D地球...

About Starlink 31485

Starlink 31485 (NORAD 59308) is a starlink constellation satellite (v2 mini) launched Mar 24, 2024 by SPXS of US. It operates in LEO, CIRCULAR orbit with a mass of 730.00 kg.

即将过境

Passes for default location (London). Set your location on the main map for personalized predictions.

高度历史

Loading altitude history...

两行轨道根数

1 59308U 24056N 26265.51842869 .00000341 00000-0 21923-4 0 9995
2 59308 43.0021 199.3821 0000856 271.1112 88.9642 15.27577514141258
Epoch: Sep 22, 2026 • Age: 17 hours

当前状态

高度 494.0 km
远地点 / 近地点 N/A
速度 7.62 km/s
星下点 -38.58°S, 6.44°W
发射日期 Mar 24, 2024
运行时间 2.4 years
类型 internet

技术详情

分类 Payload
质量 730.00 kg
干质量 700.00 kg
长度 0.30 m
跨度 29.00 m
形状 ? Box + pan
制造商 SPXS
平台类型 Starlink V2M
阶段状态 In Orbit
所有者/国家 SPXS/US

Most Searched